Regional Weather Roundup
Issued by NWS Cleveland, OH

Home | Current Version | Previous Version | Text Only | Print | Product List | Glossary Off
Versions: 1 2 3 4 5 6 7 8 9 10 11 12 13 14 15 16 17 18 19 20 21 22 23 24 25 26 27 28 29 30 31 32 33 34 35 36 37 38 39 40 41 42 43 44 45 46 47 48 49 50

000
ASUS41 KCLE 272102
RWRCLE
OHIO REGIONAL WEATHER ROUNDUP
NATIONAL WEATHER SERVICE CLEVELAND, OH
500 PM EDT THU APR 27 2017

NOTE: "FAIR" INDICATES FEW OR NO CLOUDS BELOW 12,000 FEET WITH NO
SIGNIFICANT WEATHER AND/OR OBSTRUCTIONS TO VISIBILITY.

OHZ001>008-015>018-024>027-034-035-043-044-272200-
   NORTHWEST OHIO

CITY           SKY/WX    TMP DP  RH WIND       PRES   REMARKS
DEFIANCE       CLOUDY    55  43  63 SW13G24   29.70R
FINDLAY        MOSUNNY   64  45  49 W29       29.67R
TOLEDO EXPRESS PTSUNNY   60  45  57 W29G35    29.65R
TOLEDO EXEC    MOSUNNY   64  47  53 SW21G36   29.64R
LIMA           PTSUNNY   63  48  58 W24G30    29.70R
$$

OHZ009>014-019>023-028>033-038-089-272200-
   NORTHEAST OHIO

CITY           SKY/WX    TMP DP  RH WIND       PRES   REMARKS
CLE-HOPKINS    PTSUNNY   76  53  44 SW23G32   29.61R
CLE-LAKEFRONT  PTSUNNY   75  55  49 SW24G33   29.57S
CUY CO. ARPT   PTSUNNY   72  64  78 SW9       29.60R
LORAIN-ELYRIA  LGT RAIN  68  53  58 W14G28    29.62R
ASHTABULA      PTSUNNY   73  58  59 W3        29.58F
AKRON-CANTON   PTSUNNY   76  58  53 SW17      29.62S
WOOSTER        MOSUNNY   72  52  49 SW29G39   29.63R
MANSFIELD      CLOUDY    65  58  78 W14       29.66R
YOUNGSTOWN     PTSUNNY   79  55  43 S18G26    29.60F
$$

OHZ042-051>053-060>062-070>072-077>081-272200-
  SOUTHWEST OHIO

CITY           SKY/WX    TMP DP  RH WIND       PRES   REMARKS
CINC-COVINGTON PTSUNNY   62  49  62 W16G24    29.77R
CINC-LUNKEN    MOSUNNY   65  52  62 W17       29.76R
HAMILTON       SUNNY     65  50  58 W16G23    29.76R
DAYTON         PTSUNNY   64  48  56 W22G28    29.73R
WRIGHT-PAT AFB MOSUNNY   66  48  51 SW21G30   29.72R
DAYTON GENERAL MOSUNNY   64  48  56 W14G23    29.73R
WILMINGTON     MOSUNNY   68  54  60 W25G35    29.71R
$$

OHZ036-037-039>041-045>050-054>059-063>069-073>076-082>088-272200-
  CENTRAL AND SOUTHEAST OHIO

CITY           SKY/WX    TMP DP  RH WIND       PRES   REMARKS
COLUMBUS       PTSUNNY   71  57  61 W17G26    29.67R
OSU AIRPORT    LGT RAIN  70  55  59 W22G32    29.66S
BOLTON FIELD   MOSUNNY   70  55  60 W17G25    29.68R
RICKENBACK AFB MOSUNNY   71  58  65 W22G28    29.67R
NEWARK         MOSUNNY   72  55  55 W22G30    29.65R
MARION         CLOUDY    69  50  50 W20G30    29.67R
LANCASTER      MOSUNNY   72  58  61 W17G26    29.67R
ZANESVILLE     MOSUNNY   77  58  51 SW9       29.63F
NEW PHILLY     NOT AVBL
$$




USA.gov is the U.S. government's official web portal to all federal, state and local government web resources and services.